TimeCDT,TemperatureF,Dew PointF,Humidity,Sea Level PressureIn,VisibilityMPH,Wind Direction,Wind SpeedMPH,Gust SpeedMPH,PrecipitationIn,Events,Conditions,WindDirDegrees,DateUTC
12:52 AM,66.0,59.0,78,29.96,10.0,North,8.1,-,N/A,,Mostly Cloudy,360,2013-07-01 05:52:00
1:52 AM,64.0,59.0,84,29.96,10.0,North,8.1,-,N/A,,Overcast,350,2013-07-01 06:52:00
2:52 AM,64.0,59.0,84,29.95,10.0,NW,4.6,-,N/A,,Mostly Cloudy,310,2013-07-01 07:52:00
3:52 AM,61.0,57.9,90,29.96,10.0,NNW,6.9,-,N/A,,Clear,330,2013-07-01 08:52:00
4:52 AM,59.0,57.0,93,29.97,10.0,NNW,4.6,-,N/A,,Clear,340,2013-07-01 09:52:00
5:52 AM,59.0,57.0,93,29.99,10.0,NNW,6.9,-,N/A,,Clear,330,2013-07-01 10:52:00
6:52 AM,61.0,57.9,90,29.99,10.0,NNW,6.9,-,N/A,,Clear,340,2013-07-01 11:52:00
7:52 AM,64.0,59.0,84,30.01,10.0,North,10.4,-,N/A,,Clear,360,2013-07-01 12:52:00
8:52 AM,69.1,57.9,68,30.01,10.0,North,9.2,-,N/A,,Clear,360,2013-07-01 13:52:00
9:52 AM,73.0,57.0,57,30.02,10.0,North,9.2,-,N/A,,Clear,360,2013-07-01 14:52:00
10:52 AM,75.0,55.0,50,30.02,10.0,NNE,16.1,-,N/A,,Clear,20,2013-07-01 15:52:00
11:52 AM,77.0,54.0,45,30.02,10.0,NNE,12.7,-,N/A,,Clear,20,2013-07-01 16:52:00
12:52 PM,78.1,54.0,43,30.02,10.0,North,15.0,23.0,N/A,,Clear,360,2013-07-01 17:52:00
1:52 PM,79.0,54.0,42,30.01,10.0,North,12.7,21.9,N/A,,Clear,360,2013-07-01 18:52:00
2:52 PM,75.9,53.1,45,30.01,10.0,NNW,17.3,-,N/A,,Clear,330,2013-07-01 19:52:00
3:52 PM,79.0,54.0,42,30.01,10.0,NNW,16.1,-,N/A,,Partly Cloudy,340,2013-07-01 20:52:00
4:52 PM,75.0,53.1,46,30.01,10.0,North,11.5,-,N/A,,Scattered Clouds,360,2013-07-01 21:52:00
5:52 PM,77.0,54.0,45,30.00,10.0,North,11.5,-,N/A,,Partly Cloudy,350,2013-07-01 22:52:00
6:52 PM,77.0,55.0,47,30.00,10.0,North,9.2,-,N/A,,Scattered Clouds,350,2013-07-01 23:52:00
7:52 PM,73.9,53.1,48,30.01,10.0,North,8.1,-,N/A,,Clear,360,2013-07-02 00:52:00
8:52 PM,69.1,53.1,57,30.01,10.0,North,8.1,-,N/A,,Clear,360,2013-07-02 01:52:00
9:52 PM,64.9,52.0,63,30.02,10.0,North,6.9,-,N/A,,Clear,350,2013-07-02 02:52:00
10:52 PM,64.0,52.0,65,30.02,10.0,NNW,3.5,-,N/A,,Clear,340,2013-07-02 03:52:00
11:52 PM,63.0,51.1,65,30.02,10.0,North,4.6,-,N/A,,Clear,350,2013-07-02 04:52:00